{"data":{"norad_id":48553,"intl_designator":"2021-041A","name":"STARLINK-2063","alt_names":[],"object_type":"PAYLOAD","status":"ACTIVE","operator":null,"country":"US","launch_date":"2021-05-15","launch_site_code":"AFETR","launch_vehicle":null,"mission":null,"orbit_class":"UNKNOWN","rcs_meters":null,"size_class":null,"mass_kg":null,"dimensions":null,"purposes":["comms"],"wikipedia_slug":null,"has_3d_model":false,"image_url":null,"decayed_at":null,"tle_current":{"epoch":"2026-09-19T14:40:20.913888Z","epoch_age_seconds":114124,"freshness":"FRESH","line1":"1 48553U 21041A   26262.61135317  .00001560  00000+0  62000-4 0  9991","line2":"2 48553  53.1628 304.3349 0001456  99.3528 260.7638 15.31708298294999","mean_motion":15.31708298,"eccentricity":0.0001456,"inclination_deg":53.1628,"raan_deg":304.3349,"arg_perigee_deg":99.3528,"mean_anomaly_deg":260.7638,"bstar":6.2e-5,"rev_number":29499,"period_min":94.012678646466,"perigee_km":469.71806654214,"apogee_km":471.71245232008,"semimajor_km":6848.8522594311,"source":"CELESTRAK","updated_at":"2026-09-20T09:00:39.132024Z"}}}